Station LJAC1 - 9410230 - La Jolla, CA Image indicating link to RSS feed of recent meteorological observations for station LJAC1


Conditions at LJAC1 as of
(5:30 pm PDT on 07/13/2024)
0030 GMT on 07/14/2024:
     

Click on the graph icon in the table below to see a time series plot of the last five days of that observation.

5-day plot - Wind Direction Wind Direction (WDIR): NW ( 320 deg true )
5-day plot - Wind Speed Wind Speed (WSPD): 2.9 kts
5-day plot - Wind Gust Wind Gust (GST): 4.1 kts
5-day plot - Atmospheric Pressure Atmospheric Pressure (PRES):29.96 in
5-day plot - Air Temperature Air Temperature (ATMP): 68.0 °F
5-day plot - Water Temperature Water Temperature (WTMP): 69.4 °F
5-day plot - Wind Speed at 10 Meters Wind Speed at 10 meters (WSPD10M): 3.9 kts
5-day plot - Wind Speed at 20 Meters Wind Speed at 20 meters (WSPD20M): 3.9 kts
5-day plot -  Wind Speed, Wind Gust and Atmospheric Pressure Combined plot of Wind Speed, Gust, and Air Pressure
NOS Water Level Observation Network Water Level
Previous observations
TIME
(PDT)
5-day plot - Wind Direction
WDIR
 
5-day plot - Wind Speed
WSPD
kts
5-day plot - Wind Gust
GST
kts
5-day plot - Wave Height
WVHT
ft
5-day plot - Dominant Wave Period
DPD
sec
5-day plot - Average Wave Period
APD
sec
5-day plot - Mean Wave Direction
MWD
 
5-day plot - Atmospheric Pressure
PRES
in
5-day plot - Pressure Tendency
PTDY
in
5-day plot - Air Temperature
ATMP
°F
5-day plot - Water Temperature
WTMP
°F
5-day plot - Dew Point
DEWP
°F
5-day plot - Salinity
SAL
psu
5-day plot - Visibility
VIS
nmi
5-day plot - Tide (above MLLW)
TIDE
ft
2024-07-13 05:24 pm NW 4.1 5.1----29.96- 68.0 69.6----
2024-07-13 05:18 pm NW 4.1 5.1----29.96- 68.0 69.6----
2024-07-13 05:12 pmWNW 2.9 5.1----29.96- 68.4 69.8----
2024-07-13 05:06 pmWNW 2.9 5.1----29.96- 68.5 70.3----
2024-07-13 05:00 pm NW 2.9 5.1----29.96-0.02 68.4 71.2----
2024-07-13 04:54 pm W 4.1 5.1----29.96- 68.4 71.2----
2024-07-13 04:48 pm W 2.9 6.0----29.96- 68.5 71.4----
2024-07-13 04:42 pm W 2.9 6.0----29.96- 68.5 72.1----
2024-07-13 04:36 pm W 5.1 6.0----29.96- 68.4 72.3----
2024-07-13 04:30 pmWNW 4.1 6.0----29.97- 68.2 72.1----
2024-07-13 04:24 pmWNW 5.1 6.0----29.96- 68.0 72.1----
2024-07-13 04:18 pm W 4.1 6.0----29.96- 67.8 72.1----
2024-07-13 04:12 pm W 5.1 7.0----29.97- 67.6 72.1----
2024-07-13 04:06 pm W 6.0 8.0----29.97- 67.5 72.1----
2024-07-13 04:00 pm W 6.0 8.0----29.97+0.00 67.5 72.0----
2024-07-13 03:54 pm W 4.1 8.0----29.97- 67.6 72.0----
2024-07-13 03:48 pm W 6.0 8.0----29.97-- 71.8----
2024-07-13 03:42 pm W 6.0 8.0----29.97- 67.5 71.8----
2024-07-13 03:36 pm W 8.0 9.9----29.97- 67.3 71.6----
2024-07-13 03:30 pm W 5.1 8.0----29.97-- 71.6----
2024-07-13 03:24 pmWSW 7.0 8.9----29.98-- 71.2----
2024-07-13 03:18 pmWSW 8.0 8.9----29.98- 67.3 71.1----
2024-07-13 03:12 pmWSW 8.0 11.1----29.97- 67.5 70.9----
2024-07-13 03:06 pmWSW 7.0 9.9----29.98- 67.5 70.7----
2024-07-13 03:00 pmWSW 8.0 8.9----29.98+0.00 67.3 70.5----
2024-07-13 02:54 pm W 6.0 8.9----29.98- 67.5 70.2----
2024-07-13 02:48 pmWSW 6.0 8.9----29.98- 67.1 69.8----
2024-07-13 02:42 pmWSW 7.0 8.0----29.98- 67.3 69.6----
2024-07-13 02:36 pmWSW 7.0 8.9----29.98- 67.1 69.1----
2024-07-13 02:30 pmWSW 7.0 9.9----29.98-- 68.9----
2024-07-13 02:24 pmWSW 8.0 8.9----29.98-- 68.4----
2024-07-13 02:18 pmWSW 6.0 8.0----29.98- 67.5 68.7----
2024-07-13 02:12 pmWSW 6.0 8.0----29.98- 67.5 68.2----
2024-07-13 02:06 pmWSW 7.0 8.0----29.98- 67.5 67.6----
2024-07-13 02:00 pmWSW 7.0 8.9----29.98+0.00 67.5 66.9----
2024-07-13 01:54 pmWSW 7.0 8.9----29.98- 67.5 66.0----
2024-07-13 01:48 pmWSW 7.0 9.9----29.98- 67.6 64.9----
2024-07-13 01:42 pmWSW 7.0 8.9----29.98- 67.5 64.0----
2024-07-13 01:36 pm SW 8.0 8.9----29.97- 67.5 63.1----
2024-07-13 01:30 pmWSW 6.0 8.0----29.97-- 63.1----
2024-07-13 01:24 pm SW 6.0 8.0----29.97-- 63.7----
2024-07-13 01:18 pmWSW 8.0 8.9----29.97- 67.3 64.0----
2024-07-13 01:12 pmWSW 7.0 8.9----29.97- 67.3 64.4----
2024-07-13 01:06 pmWSW 7.0 8.0----29.97- 67.5 64.9----
2024-07-13 01:00 pm W 6.0 7.0----29.97-0.01- 65.1----
2024-07-13 12:54 pm W 5.1 7.0----29.97-- 65.3----
2024-07-13 12:48 pm W 5.1 7.0----29.97-- 66.2----
2024-07-13 12:42 pm W 5.1 6.0----29.97-- 66.4----
2024-07-13 12:36 pm W 4.1 7.0----29.97-- 67.6----
2024-07-13 12:30 pmWNW 4.1 6.0----29.98- 68.4 68.4----
2024-07-13 12:24 pmWNW 5.1 6.0----29.97- 68.4 69.1----
2024-07-13 12:18 pm W 4.1 6.0----29.97- 68.2 70.2----
2024-07-13 12:12 pm W 5.1 6.0----29.97- 68.2 70.3----
2024-07-13 12:06 pm W 4.1 5.1----29.97- 67.8 70.2----
2024-07-13 12:00 pm W 5.1 6.0----29.98+0.00- 70.2----
2024-07-13 11:54 amWSW 5.1 6.0----29.98-- 70.0----
2024-07-13 11:48 amWSW 5.1 6.0----29.97- 68.0 69.8----
2024-07-13 11:42 amWNW 4.1 5.1----29.97- 68.5 69.8----
2024-07-13 11:36 am W 2.9 5.1----29.97- 68.7 69.4----
2024-07-13 11:30 am W 4.1 5.1----29.97- 68.4 69.1----
2024-07-13 11:24 am W 4.1 5.1----29.97- 68.4 68.9----
2024-07-13 11:18 am W 2.9 5.1----29.97- 68.7 68.9----
2024-07-13 11:12 am W 2.9 4.1----29.97- 68.4 68.5----
2024-07-13 11:06 am W 4.1 5.1----29.97- 67.8 68.2----
2024-07-13 11:00 amWNW 2.9 5.1----29.97+0.01 67.8 67.8----
2024-07-13 10:54 am W 4.1 6.0----29.97- 67.1 67.1----
2024-07-13 10:48 amWSW 5.1 6.0----29.97-------
2024-07-13 10:42 am W 4.1 6.0----29.98-------
2024-07-13 10:36 amWSW 5.1 6.0----29.98-------
2024-07-13 10:30 amWSW 5.1 6.0----29.98- 66.7 64.8----
2024-07-13 10:24 am W 4.1 6.0----29.98- 66.6 62.6----
2024-07-13 10:18 amWSW 4.1 6.0----29.98- 66.4 60.8----
2024-07-13 10:12 am SW 5.1 6.0----29.98- 66.4 59.5----
2024-07-13 10:06 amSSW 2.9 6.0----29.98- 66.4 59.0----
2024-07-13 10:00 am-------29.98+0.04- 59.4----
2024-07-13 09:54 am-------29.98-- 59.5----
2024-07-13 09:48 amWSW 2.9 5.1----29.98- 66.2 59.5----
2024-07-13 09:42 amSSW 4.1 4.1----29.98- 66.0 59.7----
2024-07-13 09:36 amWSW 4.1 6.0----29.98- 66.0 59.9----
2024-07-13 09:30 amWSW 5.1 6.0------ 66.0 60.1----
2024-07-13 09:24 amWSW 6.0 6.0------ 66.0 60.3----
2024-07-13 09:18 amWSW 5.1 7.0----29.98-------
2024-07-13 09:12 amWSW 5.1 7.0----29.98-------
2024-07-13 09:06 amWSW 5.1 6.0----29.98-------
2024-07-13 09:00 amWSW 6.0 6.0----29.98+0.05 65.8 61.0----
2024-07-13 08:54 am SW 5.1 7.0----29.97- 66.0 61.3----
2024-07-13 08:48 am SW 6.0 7.0----29.97- 66.0 61.5----
2024-07-13 08:42 am SW 6.0 7.0----29.97- 66.0 61.7----
2024-07-13 08:36 am SW 6.0 7.0----29.97- 66.0 62.1----
2024-07-13 08:30 am SW 5.1 6.0----29.97- 66.4 62.2----
2024-07-13 08:24 am SW 2.9 5.1----29.96- 66.4 62.4----
2024-07-13 08:18 am SW 4.1 4.1----29.96- 66.2 63.0----
2024-07-13 08:12 am SW 2.9 4.1----29.96- 66.2 63.1----
2024-07-13 08:06 am SW 2.9 4.1----29.96- 66.0 63.3----
2024-07-13 08:00 amSSW 2.9 2.9----29.96+0.03 66.0 63.5----
2024-07-13 07:54 amSSW 1.0 4.1----29.95- 66.0 63.9----
2024-07-13 07:48 amSSW 2.9 4.1----29.95- 65.8 64.2----
2024-07-13 07:42 amSSW 2.9 4.1----29.95- 66.0 64.6----
2024-07-13 07:36 am- 0.0 4.1----29.95- 65.8 64.8----
2024-07-13 07:30 am W 2.9 2.9----29.95- 65.8 65.1----
2024-07-13 07:24 amWSW 1.0 1.9----29.94- 65.8 65.3----
2024-07-13 07:18 amWSW 1.0 2.9----29.95- 65.8 65.5----
2024-07-13 07:12 am SW 1.9 2.9----29.94- 65.8 65.8----
2024-07-13 07:06 am W 1.9 4.1----29.94- 65.8 65.8----
2024-07-13 07:00 am- 0.0 1.9----29.94+0.04 65.8 66.2----
2024-07-13 06:54 am W 1.9 4.1----29.94- 65.8 66.4----
2024-07-13 06:48 amWSW 1.9 4.1----29.93- 66.0 66.7----
2024-07-13 06:42 am- 0.0 1.9----29.93- 65.8 67.3----
2024-07-13 06:36 am- 0.0 1.9----29.93- 65.7 67.8----
2024-07-13 06:30 amWSW 1.0 1.9----29.93- 65.7 69.1----
2024-07-13 06:24 am S 1.9 2.9----29.93- 65.7 69.6----
2024-07-13 06:18 amSSW 4.1 5.1----29.93- 65.5 69.6----
2024-07-13 06:12 amWSW 4.1 5.1----29.93- 65.7 70.0----
2024-07-13 06:06 amWSW 4.1 6.0----29.93- 65.5 69.8----
2024-07-13 06:00 amSSW 5.1 6.0----29.93+0.05 65.7 69.6----
2024-07-13 05:54 am SW 4.1 7.0----29.93- 65.8 69.4----
2024-07-13 05:48 am SW 5.1 7.0----29.93- 65.8 68.9----
2024-07-13 05:42 amWSW 6.0 8.0----29.93- 65.8 68.7----
2024-07-13 05:36 amWSW 8.0 8.9----29.93- 65.8 68.5----
2024-07-13 05:30 amWSW 8.0 8.9----29.92- 65.8 68.5----
2024-07-13 05:24 amWSW 8.0 9.9----29.92- 66.0 68.2----
2024-07-13 05:18 amWSW 8.0 8.9----29.92- 66.4 67.8----
2024-07-13 05:12 am SW 6.0 8.0----29.92- 66.4 67.8----
2024-07-13 05:06 amSSW 2.9 4.1----29.93- 66.4 67.6----
2024-07-13 05:00 amSSW 2.9 5.1----29.93+0.04 66.2 67.3----
2024-07-13 04:54 am S 4.1 5.1----29.93- 66.4 67.1----
2024-07-13 04:48 am SE 1.9 2.9----29.93-- 66.9----
2024-07-13 04:42 am SE 1.0 1.9----29.92-- 66.7----
2024-07-13 04:36 am- 0.0 1.0----29.91-- 66.6----
2024-07-13 04:30 amWSW 1.9 5.1----29.91-- 66.6----
2024-07-13 04:24 am SW 2.9 5.1----29.91-- 66.7----
2024-07-13 04:18 amWSW 2.9 4.1----29.91- 66.2 67.3----
2024-07-13 04:12 amWSW 2.9 4.1----29.91- 66.2 67.5----
2024-07-13 04:06 am W 1.0 5.1----29.90- 66.2 67.5----
2024-07-13 04:00 am NW 2.9 4.1----29.90- 66.0 67.5----
2024-07-13 03:54 am- 0.0 1.0----29.90- 66.0 67.5----
2024-07-13 03:48 am- 0.0 2.9----29.89- 66.0 67.1----
2024-07-13 03:42 am SE 1.9 2.9----29.89- 65.8 67.1----
2024-07-13 03:36 am- 0.0 1.9----29.89- 65.8 66.9----
2024-07-13 03:30 amNNE 1.9 4.1----29.89- 65.8 67.3----
2024-07-13 03:24 amNNW 2.9 5.1----29.88- 65.8 66.9----
2024-07-13 03:18 amNNW 6.0 6.0----29.88- 66.0 66.4----
2024-07-13 03:12 am W 2.9 5.1----29.88- 66.0 66.2----
2024-07-13 03:06 am W 1.9 1.9----29.88- 66.0 65.8----
2024-07-13 03:00 am W 1.9 2.9----29.88+0.00- 65.7----
2024-07-13 02:54 am W 2.9 4.1----29.88-- 65.3----
2024-07-13 02:48 am- 0.0 1.0----29.88-- 65.3----
2024-07-13 02:42 am- 0.0 1.9----29.88-- 65.3----
2024-07-13 02:36 amENE 1.0 1.9----29.88-- 65.3----
2024-07-13 02:30 am- 0.0 1.0----29.88- 65.5 65.1----
2024-07-13 02:24 amNNE 1.0 1.9----29.88- 65.3 64.9----
2024-07-13 02:18 am- 0.0 1.0----29.88-- 64.9----
2024-07-13 02:12 am- 0.0 2.9----29.88- 65.3 64.2----
2024-07-13 02:06 amWNW 1.9 4.1----29.88- 65.3 63.1----
2024-07-13 02:00 amWSW 2.9 4.1----29.88-0.01 65.3 63.0----
2024-07-13 01:54 am W 1.9 2.9----29.88- 65.5 63.1----
2024-07-13 01:48 amWSW 1.9 1.9----29.88- 65.5 63.1----
2024-07-13 01:42 am SW 1.9 4.1----29.88- 65.5 63.0----
2024-07-13 01:36 am SW 4.1 4.1----29.88- 65.5 64.0----
2024-07-13 01:30 amWSW 4.1 5.1----29.88- 65.5 64.4----
2024-07-13 01:24 amWSW 4.1 5.1----29.88- 65.5 63.9----
2024-07-13 01:18 amWSW 4.1 5.1----29.88-- 65.1----
2024-07-13 01:12 am SW 2.9 4.1----29.88- 65.7 66.6----
2024-07-13 01:06 amWSW 1.9 2.9----29.89- 65.7 67.6----
2024-07-13 01:00 am S 2.9 2.9------ 65.5 69.6----
2024-07-13 12:54 amSSW 2.9 4.1------ 65.5 70.7----
2024-07-13 12:48 am S 4.1 5.1----29.89- 65.7 71.1----
2024-07-13 12:42 am W 1.0 1.9----29.89- 65.7 71.2----
2024-07-13 12:36 amWSW 1.9 2.9----29.89- 65.5 71.1----
2024-07-13 12:30 am SW 1.9 2.9----29.89- 65.7 71.1----
2024-07-13 12:24 am SW 1.9 5.1----29.89- 65.7 71.1----
2024-07-13 12:18 amSSW 4.1 5.1----29.89-- 70.9----
2024-07-13 12:12 amSSW 2.9 5.1----29.89- 65.8 70.9----
2024-07-13 12:06 am SW 2.9 4.1----29.89- 65.8 70.7----
2024-07-13 12:00 am SW 2.9 4.1----29.89+0.02 66.0 70.5----
2024-07-12 11:54 pm SW 2.9 4.1----29.89- 66.0 70.7----
2024-07-12 11:48 pmWSW 4.1 5.1----29.89-- 70.7----
2024-07-12 11:42 pm SW 2.9 4.1----29.89- 65.8 70.7----
2024-07-12 11:36 pm SW 2.9 6.0----29.89- 66.0 70.7----
2024-07-12 11:30 pmWSW 2.9 5.1----29.89- 66.2 70.7----
2024-07-12 11:24 pmWSW 4.1 5.1----29.89- 66.0 70.7----
2024-07-12 11:18 pmWSW 5.1 6.0----29.89-------
2024-07-12 11:12 pmWSW 5.1 6.0----29.89- 66.2 70.7----
2024-07-12 11:06 pmWSW 5.1 6.0----29.89- 66.4 70.7----
2024-07-12 11:00 pm W 1.9 5.1----29.89+0.03 66.4 70.7----
2024-07-12 10:54 pmWSW 4.1 6.0----29.89- 66.4 70.7----
2024-07-12 10:48 pmWSW 2.9 5.1----29.89- 66.2 70.7----
2024-07-12 10:42 pm SW 2.9 5.1----29.89- 66.4 70.9----
2024-07-12 10:36 pmWSW 5.1 5.1----29.89- 66.0 70.7----
2024-07-12 10:30 pmWSW 2.9 4.1----29.89- 66.2 70.7----
2024-07-12 10:24 pmWSW 4.1 5.1----29.89- 66.4 70.7----
2024-07-12 10:18 pmWSW 2.9 4.1----29.89- 66.2 70.9----
2024-07-12 10:12 pmWSW 2.9 5.1----29.89- 66.2 70.7----
2024-07-12 10:06 pm SW 4.1 5.1----29.88- 66.4 70.9----
2024-07-12 10:00 pmWSW 2.9 5.1----29.88+0.03 66.2 71.1----
2024-07-12 09:54 pmWSW 2.9 5.1----29.88- 66.4 71.2----
2024-07-12 09:48 pmWSW 2.9 4.1----29.88-- 71.4----
2024-07-12 09:42 pm W 2.9 4.1----29.88- 66.2 71.4----
2024-07-12 09:36 pmWSW 2.9 2.9----29.88- 66.2 71.2----
2024-07-12 09:30 pm W 2.9 4.1----29.88- 66.0 71.2----
2024-07-12 09:24 pm W 1.9 2.9----29.87- 66.2 71.2----
2024-07-12 09:18 pm W 1.9 2.9----29.87-- 71.2----
2024-07-12 09:12 pm W 2.9 5.1----29.87- 66.2 71.2----
2024-07-12 09:06 pmWSW 4.1 5.1----29.87- 66.4 71.2----
2024-07-12 09:00 pm W 2.9 4.1----29.87+0.01 66.2 71.1----
2024-07-12 08:54 pm NW 1.9 4.1----29.87- 66.2 71.1----
2024-07-12 08:48 pm W 2.9 4.1----29.87- 66.2 71.1----
2024-07-12 08:42 pm W 2.9 6.0----29.87- 66.0 70.9----
2024-07-12 08:36 pm W 2.9 5.1----29.87- 66.2 70.9----
2024-07-12 08:30 pm W 2.9 4.1----29.87- 66.2 70.7----
2024-07-12 08:24 pm W 2.9 5.1----29.87- 66.0 70.5----
2024-07-12 08:18 pm W 4.1 5.1----29.86- 66.2 70.3----
2024-07-12 08:12 pmWNW 4.1 5.1----29.86- 66.2 70.2----
2024-07-12 08:06 pm NW 4.1 5.1----29.86- 66.2 69.8----
2024-07-12 08:00 pm W 4.1 6.0----29.86+0.00 66.4 69.6----
2024-07-12 07:54 pm W 2.9 5.1----29.86- 66.2 68.9----
2024-07-12 07:48 pmWNW 4.1 5.1----29.86- 66.4 68.4----
2024-07-12 07:42 pm W 5.1 6.0----29.86- 66.4 68.2----
2024-07-12 07:36 pmWNW 5.1 7.0----29.86- 66.6 67.1----
2024-07-12 07:30 pmWNW 5.1 6.0----29.85- 66.6 68.5----
2024-07-12 07:24 pm NW 4.1 5.1----29.85- 66.6 69.8----
2024-07-12 07:18 pmWNW 4.1 5.1----29.86- 66.6 69.1----
2024-07-12 07:12 pm NW 4.1 5.1----29.85- 66.4 69.4----
2024-07-12 07:06 pm NW 2.9 6.0----29.85- 66.4 69.6----
2024-07-12 07:00 pmNNW 4.1 5.1----29.85-0.01 66.4 68.9----
2024-07-12 06:54 pmNNW 2.9 7.0----29.85- 66.4 68.5----
2024-07-12 06:48 pmNNW 4.1 6.0----29.85- 66.4 69.3----
2024-07-12 06:42 pm NW 5.1 5.1----29.86- 66.4 69.4----
2024-07-12 06:36 pmNNW 2.9 5.1----29.85- 66.4 70.0----
2024-07-12 06:30 pmNNW 4.1 5.1----29.85- 66.4 70.2----
2024-07-12 06:24 pm NW 4.1 5.1----29.85- 66.4 69.6----
2024-07-12 06:18 pm NW 2.9 6.0----29.85-- 69.1----
2024-07-12 06:12 pm NW 4.1 6.0----29.85- 66.4 68.2----
2024-07-12 06:06 pm NW 5.1 6.0----29.85- 66.4 67.8----
2024-07-12 06:00 pmWNW 2.9 5.1----29.85-0.03 66.7 67.1----
2024-07-12 05:54 pmWNW 2.9 4.1----29.85- 66.6 66.4----